EW5770 Weather Reports


Display with metric or nautical units.
time (UTC)temp
F
wind
direction
speed
MPH
gust
MPH
rain 1hr
in
rain 24hr
in
rain mn
in
humidity
%
barometer
mb
20260504082002 62 0 0.0 0.0 0.00 0.00 0.00 66 1018.6
20260504081002 62 0 0.0 0.0 0.00 0.00 0.00 66 1018.6
20260504045010 54 0 0.0 0.0 0.00 0.00 0.00 77 1017.9
20260504044008 53 0 0.0 0.0 0.00 0.00 0.00 77 1017.8
20260504043007 53 0 0.0 0.0 0.00 0.00 0.00 78 1017.8
20260504042004 53 0 0.0 0.0 0.00 0.00 0.00 78 1017.7
20260504040002 54 0 0.0 0.0 0.00 0.00 0.00 75 1017.6
20260504035008 54 0 0.0 0.0 0.00 0.00 0.00 76 1017.5
20260504034017 54 0 0.0 0.0 0.00 0.00 0.00 77 1017.6
20260504033011 53 0 0.0 0.0 0.00 0.00 0.00 78 1017.7
20260504032014 54 0 0.0 0.0 0.00 0.00 0.00 78 1017.7
20260504031009 53 0 0.0 0.0 0.00 0.00 0.00 78 1017.6
20260504030002 54 0 0.0 0.0 0.00 0.00 0.00 77 1017.7
20260504023008 53 0 0.0 0.0 0.00 0.00 0.00 80 1017.9
20260504021002 54 0 0.0 0.0 0.00 0.00 0.00 79 1017.8
20260504015004 54 0 0.0 0.0 0.00 0.00 0.00 75 1017.7
20260504014014 54 0 0.0 0.0 0.00 0.00 0.00 76 1017.7
20260504013007 54 0 0.0 0.0 0.00 0.00 0.00 77 1017.8
20260504012012 54 0 0.0 0.0 0.00 0.00 0.00 78 1017.9
20260504011010 53 0 0.0 0.0 0.00 0.00 0.00 80 1018.0
20260504010003 53 0 0.0 0.0 0.00 0.00 0.00 83 1018.1
20260504005014 53 0 0.0 0.0 0.00 0.00 0.00 79 1018.1
20260504004007 53 0 0.0 0.0 0.00 0.00 0.00 81 1018.2
20260504003010 53 46 0.0 3.0 0.00 0.00 0.00 80 1018.1
20260504002012 53 0 0.0 0.0 0.00 0.00 0.00 80 1018.1
20260504001014 53 0 0.0 0.0 0.00 0.00 0.00 82 1018.1
20260503235012 54 0 0.0 0.0 0.00 0.00 0.00 82 1018.3
20260503234004 54 0 0.0 0.0 0.00 0.00 0.00 80 1018.2
20260503231009 54 55 0.0 1.0 0.00 0.00 0.00 76 1018.4
20260503225020 54 0 0.0 0.0 0.00 0.00 0.00 80 1018.8
20260503224010 54 0 0.0 0.0 0.00 0.00 0.00 84 1018.9
20260503223008 54 0 0.0 0.0 0.00 0.00 0.00 79 1018.9
20260503222007 54 0 0.0 0.0 0.00 0.00 0.00 79 1019.0
20260503221013 54 0 0.0 0.0 0.00 0.00 0.00 80 1018.8
20260503215011 55 0 0.0 0.0 0.00 0.00 0.00 83 1018.9
20260503214004 55 0 0.0 0.0 0.00 0.00 0.00 81 1018.8
20260503213006 55 0 0.0 0.0 0.00 0.00 0.00 80 1018.9
20260503212008 55 0 0.0 0.0 0.00 0.00 0.00 82 1018.8
20260503210002 56 0 0.0 0.0 0.00 0.00 0.00 78 1018.8
20260503205009 56 0 0.0 0.0 0.00 0.00 0.00 79 1018.7
20260503201005 58 0 0.0 0.0 0.00 0.00 0.00 78 1018.5
20260503195014 58 0 0.0 0.0 0.00 0.00 0.00 77 1018.4
20260503193020 59 0 0.0 0.0 0.00 0.00 0.00 77 1018.2
20260503190009 60 0 0.0 0.0 0.00 0.00 0.00 75 1017.9
20260503185006 60 0 0.0 0.0 0.00 0.00 0.00 74 1017.8
20260503184006 61 0 0.0 0.0 0.00 0.00 0.00 73 1017.8
20260503183005 62 0 0.0 0.0 0.00 0.00 0.00 71 1017.9
20260503181006 63 0 0.0 0.0 0.00 0.00 0.00 68 1017.7
20260503175009 64 0 0.0 0.0 0.00 0.00 0.00 66 1017.7
20260503173007 64 97 0.0 2.0 0.00 0.00 0.00 63 1017.7
20260503172004 65 174 0.0 2.0 0.00 0.00 0.00 64 1017.8
20260503171009 65 164 0.0 3.0 0.00 0.00 0.00 64 1017.9
20260503151008 67 244 1.0 12.0 0.00 0.00 0.00 60 1017.8
20260503131003 67 238 3.0 14.0 0.00 0.00 0.00 64 1019.5